Wind_Speed
15 14 10 15 20 24 26 24 23 22 21 17 15 14 12 15 16 18 17 19 31 18 36 34 36 36 39 37 28 25 25 23 21 19 15 13 11 12 13 14 15 16 15
16 14 11 18 23 26 27 26 25 24 22 19 16 12 15 16 15 16 16 15 18 25 35 36 36 38 36 34 29 28 26 24 25 21 19 7 7 12 15 15 16 16 16
17 16 13 18 22 27 29 27 27 25 23 19 16 13 14 10 11 15 13 17 18 21 29 37 38 37 36 35 30 28 29 26 27 25 21 7 6 14 16 17 16 16 16
18 17 13 16 23 25 25 26 26 26 24 22 18 17 15 10 11 12 14 12 12 23 28 39 37 37 33 32 31 30 29 26 26 24 25 18 10 11 6 16 19 18 19
18 17 14 16 21 25 27 27 26 25 24 22 18 17 13 13 12 12 13 13 13 20 27 36 35 36 33 29 30 29 29 27 26 25 25 17 12 17 10 7 14 18 21
9 12 11 15 21 25 26 27 27 25 24 22 20 19 16 16 15 13 12 14 17 19 21 27 28 32 31 28 30 30 31 28 25 25 23 22 20 15 13 8 13 18 20
7 8 12 14 21 26 26 27 29 25 25 23 21 21 17 16 13 15 13 15 16 20 23 23 25 30 30 26 26 29 30 29 27 27 26 23 20 19 17 14 12 11 18
7 6 9 13 18 22 23 25 27 25 24 22 20 20 18 15 13 13 13 12 14 15 19 25 30 30 33 32 29 27 29 28 28 26 27 24 20 21 19 18 16 10 16
12 4 8 10 17 21 22 23 25 24 24 22 20 19 18 16 14 13 12 11 12 13 18 24 30 32 33 33 31 30 31 32 33 33 30 27 24 27 23 22 21 20 10
15 5 6 9 15 19 20 21 23 22 22 20 19 18 17 15 13 12 13 12 11 12 15 19 25 28 31 30 33 34 32 31 34 33 31 31 28 24 21 20 16 17 17
13 8 6 7 15 16 16 19 21 22 21 19 19 16 15 15 13 12 11 10 9 11 14 15 18 22 26 29 29 31 31 31 24 26 31 35 33 32 30 24 19 19 19
12 14 10 11 14 14 15 16 17 19 19 17 15 15 14 13 13 13 12 11 11 11 13 14 16 18 25 28 28 27 26 30 32 31 25 29 25 29 29 28 31 28 29
12 13 15 14 17 15 12 12 13 15 15 14 16 14 12 11 10 10 10 11 12 11 12 12 13 14 16 22 26 25 22 24 27 32 35 35 30 32 32 32 33 35 35
12 13 14 13 17 19 19 18 22 18 10 12 15 13 9 9 9 9 9 9 9 10 12 12 12 11 12 15 20 20 21 21 23 23 25 28 32 34 34 33 34 33 32
12 13 14 13 16 18 20 21 23 21 17 16 17 15 14 14 12 8 5 7 7 7 8 10 11 12 8 8 14 15 19 22 24 25 27 27 29 31 32 31 31 31 31
10 12 13 14 15 18 19 19 20 20 18 18 18 15 15 15 14 12 12 12 11 7 6 5 4 7 5 2 13 17 17 15 21 25 26 29 32 37 40 42 45 44 36
9 11 11 13 16 18 18 19 18 17 17 20 19 15 15 18 15 12 12 14 13 12 14 14 12 11 10 10 4 9 18 22 24 20 15 16 19 23 26 30 39 47 52
8 12 11 14 19 18 18 18 20 20 21 20 18 14 17 21 14 13 13 14 14 15 15 15 13 12 16 14 8 5 3 2 3 6 9 10 13 16 20 23 24 21 22
10 14 15 16 19 18 17 19 19 18 19 17 16 19 24 20 14 15 14 13 15 17 17 17 16 15 19 23 15 9 7 10 12 13 19 14 13 16 16 16 17 15 4
13 15 16 18 18 19 17 18 20 22 27 25 23 23 18 16 17 14 15 14 16 18 17 18 19 20 20 27 22 15 11 13 13 16 19 23 20 18 16 11 5 11 9
16 17 18 19 19 17 18 22 22 25 21 20 17 18 16 18 17 15 14 14 16 18 18 18 18 20 22 25 26 23 17 14 14 16 19 25 22 23 24 20 17 15 14
16 16 18 20 18 17 17 18 19 16 17 16 16 18 19 16 16 15 13 14 16 18 17 17 17 17 18 23 25 25 23 18 18 17 17 18 24 26 25 26 22 20 20
16 16 18 19 19 18 17 17 15 14 17 17 18 19 19 19 17 16 15 17 17 18 18 17 17 18 16 15 19 22 22 22 22 19 19 18 18 20 24 25 22 20 17
15 16 17 18 17 16 16 15 13 12 14 16 18 18 19 18 19 19 19 18 18 17 16 16 17 16 17 16 14 13 13 14 14 14 15 17 18 19 19 19 20 19 18
16 18 17 17 16 15 15 14 11 11 13 14 14 15 17 19 22 23 20 23 25 18 15 15 15 13 16 16 14 13 10 11 11 10 12 14 15 16 16 17 17 16 15
17 18 16 17 16 16 16 14 12 10 11 13 13 11 12 11 12 15 20 23 23 23 22 20 15 16 15 15 17 17 15 13 11 12 13 13 15 15 14 14 14 15 15
Wind_Direction
260 258 231 195 193 191 187 179 173 177 175 181 178 188 189 200 212 219 224 225 219 187 187 186 180 182 180 186 182 180 176 182 177 169 165 168 175 184 186 195 197 193 194
249 240 209 192 193 191 189 179 177 177 180 183 182 183 184 199 204 213 220 220 217 217 192 186 180 180 176 179 183 184 179 181 181 177 170 162 175 200 201 198 207 198 198
248 233 201 198 194 193 189 182 178 178 180 183 181 173 171 182 194 202 221 229 218 233 208 184 183 180 180 177 184 183 184 177 187 192 189 170 196 184 201 206 209 205 212
232 238 211 199 199 195 188 183 178 179 180 184 180 180 183 183 201 197 209 216 223 214 198 189 187 187 179 181 185 189 187 185 189 199 203 204 229 185 170 209 213 210 212
226 234 224 206 197 187 184 180 177 180 178 181 180 180 183 196 192 188 199 205 197 195 171 181 182 181 181 185 191 191 193 193 196 194 206 211 199 212 193 186 202 214 219
258 251 223 195 186 179 177 176 177 180 178 176 181 181 184 195 182 188 187 188 199 197 193 184 188 188 187 189 190 189 191 195 200 201 204 211 206 205 215 233 201 212 216
287 235 193 182 177 174 168 173 178 176 174 176 180 186 188 193 190 188 188 192 191 196 200 200 197 195 189 190 191 192 195 200 204 208 209 212 216 222 223 230 231 229 227
310 233 178 180 170 172 165 173 174 172 170 175 178 180 182 186 190 187 192 194 201 202 206 213 205 203 199 201 199 196 198 201 207 209 213 216 218 228 230 231 234 238 246
341 293 176 170 165 169 166 174 172 168 169 172 178 177 178 184 186 189 196 206 207 207 212 216 200 209 205 202 203 208 212 215 213 216 213 219 223 235 235 236 240 245 250
345 36 144 166 164 155 171 171 167 168 167 171 176 181 185 185 187 189 196 206 207 200 199 205 209 205 209 208 210 211 214 220 222 218 217 220 227 234 229 232 233 242 248
360 9 96 129 120 147 159 160 165 160 160 168 178 176 178 180 181 184 192 203 203 203 206 198 199 204 209 207 204 213 216 219 221 224 226 229 230 232 231 233 225 237 243
10 34 45 107 120 138 145 155 163 154 152 163 166 166 167 171 178 187 194 198 201 203 201 199 197 202 211 207 205 208 215 220 220 228 229 229 223 231 236 239 252 250 251
22 39 46 46 48 59 97 107 128 127 131 151 156 153 154 159 176 192 196 197 197 200 202 201 199 202 209 214 215 215 217 220 223 226 227 232 233 240 242 243 245 247 251
28 43 49 42 46 55 56 60 58 78 118 119 109 104 131 157 172 187 194 202 211 204 197 201 203 205 211 220 221 221 224 223 227 231 234 236 237 242 243 244 243 246 245
30 39 49 46 43 48 55 55 56 60 70 84 82 79 84 93 103 125 171 197 203 213 215 209 206 205 204 211 231 239 234 233 238 238 238 242 244 247 247 247 245 242 243
37 40 48 54 46 42 53 60 59 58 67 66 64 67 73 74 70 78 86 93 95 112 176 205 199 123 94 245 234 236 240 246 250 252 253 254 255 253 252 252 253 255 259
66 50 50 54 54 50 50 57 66 69 68 69 59 50 69 64 55 60 69 71 72 81 80 80 85 84 44 20 342 273 256 259 264 278 296 286 272 269 267 261 258 257 258
85 67 48 56 59 55 56 58 59 61 61 61 60 53 58 59 51 51 57 69 71 72 70 67 68 64 29 18 6 347 315 7 78 27 356 321 303 294 286 275 270 275 263
65 68 61 56 55 53 57 63 63 66 66 63 58 57 57 59 51 55 54 61 72 70 68 62 56 53 34 27 31 47 69 93 69 50 39 31 10 345 327 309 292 274 227
68 69 63 59 55 49 55 63 58 52 45 40 40 51 56 65 65 60 65 70 76 77 73 66 55 50 38 34 42 57 71 75 69 54 42 35 31 17 9 22 40 89 66
70 65 63 59 57 55 57 56 49 47 45 49 50 58 66 66 69 69 70 78 81 80 74 69 59 53 47 39 41 57 62 65 67 61 51 44 42 44 47 55 71 85 90
76 71 68 59 53 54 63 69 67 64 66 63 62 62 63 68 73 74 74 80 81 80 78 75 67 57 50 47 46 52 62 67 69 64 61 57 54 56 57 63 71 83 82
77 73 74 69 59 56 60 65 63 66 68 69 66 65 66 65 68 77 75 74 73 75 70 69 64 57 52 52 50 57 62 68 73 72 70 65 60 58 56 57 58 59 56
72 74 73 70 66 62 64 69 75 83 86 81 77 74 71 70 67 64 63 66 66 68 68 64 61 56 48 42 37 44 48 58 65 64 62 60 59 57 53 49 47 49 50
73 73 72 71 68 65 64 63 74 87 91 90 88 86 82 78 74 66 64 66 62 67 72 69 67 63 54 43 48 57 59 62 66 66 59 53 49 46 44 43 43 41 41
71 71 68 68 62 64 63 62 67 80 90 87 82 80 84 84 87 85 76 67 69 67 68 70 78 70 68 61 59 59 60 66 66 64 57 51 46 44 40 41 41 39 38
Height
678 680 684 691 698 704 710 713 720 727 733 738 740 743 745 749 751 754 756 758 760 756 763 770 775 781 788 795 802 806 811 817 822 827 833 836 839 843 845 848 850 850 853
672 673 680 687 693 699 704 708 716 723 729 734 737 739 742 747 749 751 754 756 759 762 758 762 771 777 785 793 799 804 809 814 819 822 828 834 841 842 843 845 847 847 850
667 666 673 681 688 692 697 704 711 719 726 730 733 737 740 745 748 749 751 753 755 757 759 759 767 774 781 788 796 800 805 810 816 818 820 826 827 835 839 842 844 845 848
660 661 662 673 680 686 694 701 708 716 721 726 730 733 737 742 745 746 748 750 751 752 754 758 764 771 778 786 792 798 802 807 812 816 817 818 817 823 831 837 840 842 844
651 652 656 664 674 681 690 697 705 714 717 722 727 731 736 740 742 745 747 750 751 752 753 756 762 767 775 784 789 795 800 805 809 812 816 819 820 821 820 826 833 837 838
652 651 654 662 669 677 686 694 703 710 714 719 724 728 733 738 740 743 746 748 750 753 755 758 763 768 775 781 787 791 796 801 806 810 813 815 816 818 818 820 823 828 831
652 650 655 659 665 674 684 692 699 707 711 716 721 726 730 736 738 742 745 747 750 752 756 758 763 767 772 778 783 787 792 797 802 806 809 812 813 815 817 817 818 823 824
651 649 653 659 664 674 686 691 697 705 709 715 718 724 729 733 737 740 742 746 749 752 754 758 760 766 770 775 780 785 789 794 798 802 806 808 810 813 814 816 819 818 819
656 649 653 659 663 672 685 691 696 702 707 713 718 722 727 731 735 738 740 743 746 749 752 755 757 762 766 772 776 781 785 789 794 798 800 803 806 810 811 813 814 815 815
667 656 657 662 665 675 686 691 696 701 706 712 717 721 725 729 734 737 739 741 743 746 749 752 755 757 763 767 772 776 781 786 789 792 796 798 801 804 807 808 810 812 812
684 667 665 668 671 681 688 693 696 700 705 712 716 720 724 728 732 736 738 740 742 744 746 750 754 757 760 764 767 771 776 779 784 788 790 792 797 798 800 802 804 806 809
694 687 677 678 680 686 691 696 698 700 704 712 717 720 724 727 731 734 737 740 742 744 746 748 751 755 758 762 764 769 772 775 779 782 785 786 790 791 794 795 797 798 800
703 696 692 693 693 693 695 698 701 702 708 714 717 721 724 727 731 733 735 738 741 743 745 748 750 753 756 759 761 765 768 771 773 775 779 780 783 785 786 787 789 791 792
713 707 704 704 704 704 703 703 703 706 710 715 717 720 724 727 730 733 736 738 740 742 744 746 749 752 755 757 759 761 763 765 768 770 772 773 775 777 779 780 780 782 782
722 717 712 714 715 712 710 710 709 712 715 718 720 723 724 726 728 730 733 735 738 740 743 745 748 751 752 751 754 757 760 762 763 764 765 766 768 769 770 771 770 772 771
730 726 723 721 719 721 718 718 718 719 722 723 725 727 727 728 731 732 734 735 737 739 740 742 745 746 748 750 751 754 756 758 759 760 760 760 761 761 762 762 763 764 764
733 734 732 729 729 729 727 725 725 727 729 728 731 735 732 731 736 738 738 739 741 742 742 744 746 748 749 750 750 750 751 752 753 754 753 753 754 753 752 753 754 755 754
737 738 738 737 733 734 733 733 731 732 733 735 738 741 736 733 741 743 743 743 744 746 748 750 751 751 752 751 749 749 749 751 750 749 749 750 749 748 746 746 747 748 742
742 732 740 741 737 739 739 739 739 742 743 746 747 742 733 741 750 750 750 749 749 751 752 755 756 756 755 751 748 748 749 749 751 752 751 750 749 746 744 743 743 742 741
747 744 745 745 744 743 744 744 744 744 739 741 745 740 750 750 752 757 756 756 755 756 758 760 761 761 760 753 750 749 750 751 753 754 755 753 750 746 741 739 740 741 744
750 748 749 749 749 749 749 746 747 746 751 752 757 755 756 754 758 761 762 763 760 759 761 763 766 765 763 761 757 754 754 757 758 758 758 758 755 752 746 742 742 745 748
755 754 753 754 755 756 756 757 760 762 760 764 767 764 761 763 763 765 769 767 763 763 765 767 769 769 768 766 763 761 760 762 762 763 764 764 763 759 755 753 753 752 752
758 759 760 762 763 763 763 763 765 766 765 768 769 768 770 769 771 772 774 769 768 766 769 771 773 772 773 773 772 770 767 766 767 769 769 769 768 767 765 763 761 760 760
765 765 766 768 770 771 771 772 773 774 774 775 775 777 777 779 780 779 777 775 773 774 775 775 775 778 779 778 776 775 775 775 773 774 774 773 772 772 771 769 768 767 767
770 770 773 775 777 777 777 778 779 779 780 781 783 784 784 785 786 786 786 784 783 780 781 783 782 784 783 783 782 779 780 779 779 781 780 777 777 776 776 774 773 774 774
777 778 782 783 784 784 785 785 785 784 784 784 785 787 787 789 789 791 793 792 792 792 789 786 786 786 787 787 785 783 783 784 783 784 783 783 781 780 781 780 779 778 777